Time,TemperatureF,DewpointF,PressureIn,WindDirection,WindDirectionDegrees,WindSpeedMPH,WindSpeedGustMPH,Humidity,HourlyPrecipIn,Conditions,Clouds,dailyrainin,SolarRadiationWatts/m^2,SoftwareType,DateUTC
2013-08-27 00:02:00,81.0,74.6,29.98,SSW,213,3.0,5.0,81,0.00,,,0.00,0,Wunderground v.1.15,2013-08-27 05:02:00,
2013-08-27 00:07:00,81.0,74.6,29.98,SW,221,11.0,11.0,81,0.00,,,0.00,0,Wunderground v.1.15,2013-08-27 05:07:00,
2013-08-27 00:13:00,81.0,74.6,29.98,SW,216,7.0,7.0,81,0.00,,,0.00,0,Wunderground v.1.15,2013-08-27 05:13:00,
2013-08-27 00:18:00,81.0,74.2,29.99,SW,219,5.0,8.0,80,0.00,,,0.00,0,Wunderground v.1.15,2013-08-27 05:18:00,
2013-08-27 00:24:00,81.0,74.2,29.99,SW,221,4.0,4.0,80,0.00,,,0.00,0,Wunderground v.1.15,2013-08-27 05:24:00,
2013-08-27 00:29:00,81.0,74.2,29.99,SW,224,1.0,6.0,80,0.00,,,0.00,0,Wunderground v.1.15,2013-08-27 05:29:00,
2013-08-27 00:35:00,80.8,74.0,29.99,SSW,201,4.0,7.0,80,0.00,,,0.00,0,Wunderground v.1.15,2013-08-27 05:35:00,
2013-08-27 00:40:00,80.6,74.2,30.00,SSW,206,3.0,3.0,81,0.00,,,0.00,0,Wunderground v.1.15,2013-08-27 05:40:00,
2013-08-27 00:45:00,80.5,74.1,30.00,SSW,201,2.0,6.0,81,0.00,,,0.00,0,Wunderground v.1.15,2013-08-27 05:45:00,
2013-08-27 00:51:00,80.4,74.0,30.00,SSW,198,4.0,4.0,81,0.00,,,0.00,0,Wunderground v.1.15,2013-08-27 05:51:00,
2013-08-27 00:56:00,80.3,73.9,30.00,SSW,196,0.0,4.0,81,0.00,,,0.00,0,Wunderground v.1.15,2013-08-27 05:56:00,
2013-08-27 01:01:00,80.0,74.0,29.99,SSW,200,4.0,6.0,82,0.00,,,0.00,0,Wunderground v.1.15,2013-08-27 06:01:00,
2013-08-27 01:07:00,79.7,74.1,29.98,South,185,4.0,8.0,83,0.00,,,0.00,0,Wunderground v.1.15,2013-08-27 06:07:00,
2013-08-27 01:12:00,79.4,73.8,29.98,South,186,2.0,6.0,83,0.00,,,0.00,0,Wunderground v.1.15,2013-08-27 06:12:00,
2013-08-27 01:18:00,79.1,73.8,29.97,SSW,195,2.0,6.0,84,0.00,,,0.00,0,Wunderground v.1.15,2013-08-27 06:18:00,
2013-08-27 01:23:00,79.0,73.7,29.97,SSW,196,0.0,5.0,84,0.00,,,0.00,0,Wunderground v.1.15,2013-08-27 06:23:00,
2013-08-27 01:29:00,78.9,73.7,29.96,SSW,196,3.0,6.0,84,0.00,,,0.00,0,Wunderground v.1.15,2013-08-27 06:29:00,
2013-08-27 01:34:00,78.8,73.6,29.96,SSW,196,2.0,3.0,84,0.00,,,0.00,0,Wunderground v.1.15,2013-08-27 06:34:00,
2013-08-27 01:40:00,78.8,73.6,29.95,SSW,197,1.0,1.0,84,0.00,,,0.00,0,Wunderground v.1.15,2013-08-27 06:40:00,
2013-08-27 01:45:00,78.8,73.6,29.95,SSW,197,1.0,4.0,84,0.00,,,0.00,0,Wunderground v.1.15,2013-08-27 06:45:00,
2013-08-27 01:50:00,78.7,73.1,29.94,SSW,198,1.0,2.0,83,0.00,,,0.00,0,Wunderground v.1.15,2013-08-27 06:50:00,
2013-08-27 01:56:00,78.7,73.1,29.94,South,186,5.0,5.0,83,0.00,,,0.00,0,Wunderground v.1.15,2013-08-27 06:56:00,
2013-08-27 02:01:00,78.7,73.1,29.94,SSW,194,0.0,2.0,83,0.00,,,0.00,0,Wunderground v.1.15,2013-08-27 07:01:00,
2013-08-27 02:06:00,78.7,73.1,29.94,SW,220,0.0,4.0,83,0.00,,,0.00,0,Wunderground v.1.15,2013-08-27 07:06:00,
2013-08-27 02:11:00,78.7,73.1,29.94,SW,220,0.0,1.0,83,0.00,,,0.00,0,Wunderground v.1.15,2013-08-27 07:11:00,
2013-08-27 02:16:00,78.7,72.7,29.94,SW,220,1.0,4.0,82,0.00,,,0.00,0,Wunderground v.1.15,2013-08-27 07:16:00,
2013-08-27 02:21:00,78.7,72.7,29.94,SW,219,0.0,5.0,82,0.00,,,0.00,0,Wunderground v.1.15,2013-08-27 07:21:00,
2013-08-27 02:26:00,78.7,72.7,29.94,SW,218,0.0,5.0,82,0.00,,,0.00,0,Wunderground v.1.15,2013-08-27 07:26:00,
2013-08-27 02:31:00,78.7,72.7,29.94,SW,219,4.0,5.0,82,0.00,,,0.00,0,Wunderground v.1.15,2013-08-27 07:31:00,
2013-08-27 02:36:00,78.8,72.8,29.94,SW,218,1.0,5.0,82,0.00,,,0.00,0,Wunderground v.1.15,2013-08-27 07:36:00,
2013-08-27 02:41:00,78.7,72.7,29.94,SW,218,2.0,4.0,82,0.00,,,0.00,0,Wunderground v.1.15,2013-08-27 07:41:00,
2013-08-27 02:46:00,78.7,72.7,29.94,SW,218,2.0,4.0,82,0.00,,,0.00,0,Wunderground v.1.15,2013-08-27 07:46:00,
2013-08-27 02:51:00,78.7,72.7,29.95,SW,218,0.0,3.0,82,0.00,,,0.00,0,Wunderground v.1.15,2013-08-27 07:51:00,
2013-08-27 02:56:00,78.7,72.7,29.95,SW,218,0.0,3.0,82,0.00,,,0.00,0,Wunderground v.1.15,2013-08-27 07:56:00,
2013-08-27 03:01:00,78.5,72.5,29.95,SW,218,0.0,0.0,82,0.00,,,0.00,0,Wunderground v.1.15,2013-08-27 08:01:00,
2013-08-27 03:06:00,78.3,72.7,29.95,SW,218,1.0,2.0,83,0.00,,,0.00,0,Wunderground v.1.15,2013-08-27 08:06:00,
2013-08-27 03:11:00,77.9,72.3,29.95,SW,218,0.0,1.0,83,0.00,,,0.00,0,Wunderground v.1.15,2013-08-27 08:11:00,
2013-08-27 03:16:00,77.6,72.4,29.96,SW,218,0.0,1.0,84,0.00,,,0.00,0,Wunderground v.1.15,2013-08-27 08:16:00,
2013-08-27 03:21:00,77.4,72.2,29.96,SW,218,0.0,0.0,84,0.00,,,0.00,0,Wunderground v.1.15,2013-08-27 08:21:00,
2013-08-27 03:26:00,77.2,72.3,29.96,SW,218,0.0,0.0,85,0.00,,,0.00,0,Wunderground v.1.15,2013-08-27 08:26:00,
2013-08-27 03:31:00,77.0,72.1,29.96,SW,218,0.0,0.0,85,0.00,,,0.00,0,Wunderground v.1.15,2013-08-27 08:31:00,
2013-08-27 03:36:00,76.8,71.9,29.96,SW,218,0.0,1.0,85,0.00,,,0.00,0,Wunderground v.1.15,2013-08-27 08:36:00,
2013-08-27 03:41:00,76.6,72.1,29.96,SW,218,0.0,0.0,86,0.00,,,0.00,0,Wunderground v.1.15,2013-08-27 08:41:00,
2013-08-27 03:46:00,76.3,71.8,29.96,SW,218,0.0,0.0,86,0.00,,,0.00,0,Wunderground v.1.15,2013-08-27 08:46:00,
2013-08-27 03:51:00,76.1,71.9,29.96,SW,218,0.0,0.0,87,0.00,,,0.00,0,Wunderground v.1.15,2013-08-27 08:51:00,
2013-08-27 03:56:00,75.8,71.7,29.96,SW,218,0.0,0.0,87,0.00,,,0.00,0,Wunderground v.1.15,2013-08-27 08:56:00,
2013-08-27 04:01:00,75.5,71.7,29.96,SW,218,0.0,0.0,88,0.00,,,0.00,0,Wunderground v.1.15,2013-08-27 09:01:00,
2013-08-27 04:06:00,75.3,71.5,29.95,SW,218,0.0,0.0,88,0.00,,,0.00,0,Wunderground v.1.15,2013-08-27 09:06:00,
2013-08-27 04:11:00,75.1,71.6,29.95,SW,218,0.0,0.0,89,0.00,,,0.00,0,Wunderground v.1.15,2013-08-27 09:11:00,
2013-08-27 04:17:00,74.9,71.4,29.95,SW,218,0.0,0.0,89,0.00,,,0.00,0,Wunderground v.1.15,2013-08-27 09:17:00,
2013-08-27 04:22:00,74.7,71.2,29.95,SW,218,0.0,0.0,89,0.00,,,0.00,0,Wunderground v.1.15,2013-08-27 09:22:00,
2013-08-27 04:27:00,74.6,71.5,29.95,SW,218,0.0,0.0,90,0.00,,,0.00,0,Wunderground v.1.15,2013-08-27 09:27:00,
2013-08-27 04:32:00,74.6,71.5,29.95,SW,218,0.0,1.0,90,0.00,,,0.00,0,Wunderground v.1.15,2013-08-27 09:32:00,
2013-08-27 04:37:00,74.5,71.4,29.95,SW,218,0.0,1.0,90,0.00,,,0.00,0,Wunderground v.1.15,2013-08-27 09:37:00,
2013-08-27 04:42:00,74.5,71.4,29.95,SW,218,2.0,2.0,90,0.00,,,0.00,0,Wunderground v.1.15,2013-08-27 09:42:00,
2013-08-27 04:47:00,74.4,71.6,29.95,SW,218,0.0,2.0,91,0.00,,,0.00,0,Wunderground v.1.15,2013-08-27 09:47:00,
2013-08-27 04:52:00,74.4,71.6,29.95,SW,218,0.0,1.0,91,0.00,,,0.00,0,Wunderground v.1.15,2013-08-27 09:52:00,
2013-08-27 04:57:00,74.4,71.6,29.95,SW,218,1.0,2.0,91,0.00,,,0.00,0,Wunderground v.1.15,2013-08-27 09:57:00,
2013-08-27 05:02:00,74.5,71.4,29.95,SW,217,2.0,4.0,90,0.00,,,0.00,0,Wunderground v.1.15,2013-08-27 10:02:00,
2013-08-27 05:07:00,74.6,71.5,29.95,SW,217,0.0,4.0,90,0.00,,,0.00,0,Wunderground v.1.15,2013-08-27 10:07:00,
2013-08-27 05:12:00,74.6,71.1,29.95,SW,217,1.0,1.0,89,0.00,,,0.00,0,Wunderground v.1.15,2013-08-27 10:12:00,
2013-08-27 05:17:00,74.5,71.0,29.95,SW,217,0.0,1.0,89,0.00,,,0.00,0,Wunderground v.1.15,2013-08-27 10:17:00,
2013-08-27 05:22:00,74.5,71.0,29.95,SW,217,0.0,1.0,89,0.00,,,0.00,0,Wunderground v.1.15,2013-08-27 10:22:00,
2013-08-27 05:27:00,74.4,70.9,29.95,SW,217,0.0,1.0,89,0.00,,,0.00,0,Wunderground v.1.15,2013-08-27 10:27:00,
2013-08-27 05:32:00,74.4,70.9,29.95,SW,215,1.0,2.0,89,0.00,,,0.00,0,Wunderground v.1.15,2013-08-27 10:32:00,
2013-08-27 05:37:00,74.4,70.6,29.95,ESE,111,0.0,2.0,88,0.00,,,0.00,0,Wunderground v.1.15,2013-08-27 10:37:00,
2013-08-27 05:42:00,74.2,70.4,29.96,ESE,111,0.0,0.0,88,0.00,,,0.00,0,Wunderground v.1.15,2013-08-27 10:42:00,
2013-08-27 05:47:00,73.9,70.5,29.96,ESE,111,0.0,0.0,89,0.00,,,0.00,0,Wunderground v.1.15,2013-08-27 10:47:00,
2013-08-27 05:52:00,73.6,70.2,29.96,ESE,111,0.0,1.0,89,0.00,,,0.00,0,Wunderground v.1.15,2013-08-27 10:52:00,
2013-08-27 05:57:00,73.4,70.3,29.96,ESE,111,0.0,1.0,90,0.00,,,0.00,0,Wunderground v.1.15,2013-08-27 10:57:00,
2013-08-27 06:02:00,73.3,70.2,29.96,ESE,111,0.0,1.0,90,0.00,,,0.00,0,Wunderground v.1.15,2013-08-27 11:02:00,
2013-08-27 06:07:00,73.2,70.1,29.95,ESE,111,0.0,2.0,90,0.00,,,0.00,0,Wunderground v.1.15,2013-08-27 11:07:00,
2013-08-27 06:12:00,73.1,70.3,29.95,ESE,111,0.0,1.0,91,0.00,,,0.00,0,Wunderground v.1.15,2013-08-27 11:12:00,
2013-08-27 06:17:00,73.1,70.3,29.95,ESE,111,0.0,2.0,91,0.00,,,0.00,0,Wunderground v.1.15,2013-08-27 11:17:00,
2013-08-27 06:22:00,73.0,70.2,29.95,ESE,111,0.0,1.0,91,0.00,,,0.00,5,Wunderground v.1.15,2013-08-27 11:22:00,
2013-08-27 06:27:00,73.0,70.2,29.95,ESE,111,0.0,4.0,91,0.00,,,0.00,7,Wunderground v.1.15,2013-08-27 11:27:00,
2013-08-27 06:32:00,73.0,70.2,29.95,ESE,111,0.0,1.0,91,0.00,,,0.00,11,Wunderground v.1.15,2013-08-27 11:32:00,
2013-08-27 06:37:00,73.0,70.2,29.95,ESE,112,0.0,4.0,91,0.00,,,0.00,14,Wunderground v.1.15,2013-08-27 11:37:00,
2013-08-27 06:42:00,73.0,69.9,29.95,ESE,115,2.0,6.0,90,0.00,,,0.00,19,Wunderground v.1.15,2013-08-27 11:42:00,
2013-08-27 06:47:00,73.1,70.0,29.95,ESE,116,0.0,6.0,90,0.00,,,0.00,23,Wunderground v.1.15,2013-08-27 11:47:00,
2013-08-27 06:53:00,73.1,70.0,29.95,ESE,116,0.0,5.0,90,0.00,,,0.00,28,Wunderground v.1.15,2013-08-27 11:53:00,
2013-08-27 06:58:00,73.2,70.1,29.95,SE,126,0.0,5.0,90,0.00,,,0.00,33,Wunderground v.1.15,2013-08-27 11:58:00,
2013-08-27 07:03:00,73.2,70.1,29.94,SE,126,5.0,5.0,90,0.00,,,0.00,37,Wunderground v.1.15,2013-08-27 12:03:00,
2013-08-27 07:08:00,73.3,70.2,29.94,SE,128,0.0,5.0,90,0.00,,,0.00,42,Wunderground v.1.15,2013-08-27 12:08:00,
2013-08-27 07:13:00,73.4,70.3,29.94,SE,128,4.0,5.0,90,0.00,,,0.00,47,Wunderground v.1.15,2013-08-27 12:13:00,
2013-08-27 07:18:00,73.6,70.5,29.95,SSE,157,0.0,6.0,90,0.00,,,0.00,53,Wunderground v.1.15,2013-08-27 12:18:00,
2013-08-27 07:23:00,73.7,70.6,29.95,SSE,157,1.0,2.0,90,0.00,,,0.00,54,Wunderground v.1.15,2013-08-27 12:23:00,
2013-08-27 07:28:00,73.9,70.5,29.95,SSE,167,5.0,7.0,89,0.00,,,0.00,56,Wunderground v.1.15,2013-08-27 12:28:00,
2013-08-27 07:33:00,74.1,70.6,29.94,South,171,2.0,6.0,89,0.00,,,0.00,60,Wunderground v.1.15,2013-08-27 12:33:00,
2013-08-27 07:38:00,74.2,70.7,29.94,South,171,0.0,6.0,89,0.00,,,0.00,67,Wunderground v.1.15,2013-08-27 12:38:00,
2013-08-27 07:43:00,74.3,70.8,29.94,SSE,157,6.0,7.0,89,0.00,,,0.00,74,Wunderground v.1.15,2013-08-27 12:43:00,
2013-08-27 07:48:00,74.4,70.9,29.94,South,171,5.0,8.0,89,0.00,,,0.00,84,Wunderground v.1.15,2013-08-27 12:48:00,
2013-08-27 07:53:00,74.6,71.1,29.94,South,172,0.0,6.0,89,0.00,,,0.00,93,Wunderground v.1.15,2013-08-27 12:53:00,
2013-08-27 07:58:00,74.7,70.9,29.94,SSE,161,5.0,8.0,88,0.00,,,0.00,100,Wunderground v.1.15,2013-08-27 12:58:00,
2013-08-27 08:03:00,74.9,71.1,29.94,SSE,166,7.0,8.0,88,0.00,,,0.00,109,Wunderground v.1.15,2013-08-27 13:03:00,
2013-08-27 08:08:00,75.1,71.3,29.94,SSE,163,6.0,8.0,88,0.00,,,0.00,118,Wunderground v.1.15,2013-08-27 13:08:00,
2013-08-27 08:13:00,75.3,71.2,29.95,SE,146,5.0,7.0,87,0.00,,,0.00,130,Wunderground v.1.15,2013-08-27 13:13:00,
2013-08-27 08:18:00,75.5,71.4,29.94,SE,146,0.0,7.0,87,0.00,,,0.00,137,Wunderground v.1.15,2013-08-27 13:18:00,
2013-08-27 08:23:00,75.7,71.6,29.94,SSE,148,6.0,8.0,87,0.00,,,0.00,146,Wunderground v.1.15,2013-08-27 13:23:00,
2013-08-27 08:28:00,75.8,71.7,29.94,SSE,155,5.0,8.0,87,0.00,,,0.00,155,Wunderground v.1.15,2013-08-27 13:28:00,
2013-08-27 08:33:00,76.0,71.5,29.94,SSE,153,8.0,8.0,86,0.00,,,0.00,151,Wunderground v.1.15,2013-08-27 13:33:00,
2013-08-27 08:38:00,76.1,71.6,29.94,SE,146,1.0,8.0,86,0.00,,,0.00,158,Wunderground v.1.15,2013-08-27 13:38:00,
2013-08-27 08:43:00,76.3,71.8,29.94,SSE,161,6.0,9.0,86,0.00,,,0.00,144,Wunderground v.1.15,2013-08-27 13:43:00,
2013-08-27 08:48:00,76.4,71.9,29.94,SSE,148,4.0,9.0,86,0.00,,,0.00,151,Wunderground v.1.15,2013-08-27 13:48:00,
2013-08-27 08:53:00,76.6,71.7,29.94,SSE,153,8.0,8.0,85,0.00,,,0.00,183,Wunderground v.1.15,2013-08-27 13:53:00,
2013-08-27 08:58:00,76.9,72.0,29.94,SE,142,6.0,8.0,85,0.00,,,0.00,221,Wunderground v.1.15,2013-08-27 13:58:00,
2013-08-27 09:03:00,77.1,72.2,29.94,SSE,162,4.0,7.0,85,0.00,,,0.00,287,Wunderground v.1.15,2013-08-27 14:03:00,
2013-08-27 09:08:00,77.5,72.3,29.94,SSE,163,7.0,8.0,84,0.00,,,0.00,378,Wunderground v.1.15,2013-08-27 14:08:00,
2013-08-27 09:13:00,78.0,72.4,29.93,SSE,148,2.0,8.0,83,0.00,,,0.00,332,Wunderground v.1.15,2013-08-27 14:13:00,
2013-08-27 09:18:00,78.5,72.9,29.93,South,169,6.0,8.0,83,0.00,,,0.00,246,Wunderground v.1.15,2013-08-27 14:18:00,
2013-08-27 09:23:00,78.7,72.7,29.93,South,169,5.0,8.0,82,0.00,,,0.00,352,Wunderground v.1.15,2013-08-27 14:23:00,
2013-08-27 09:29:00,78.9,72.9,29.93,SSW,194,7.0,9.0,82,0.00,,,0.00,403,Wunderground v.1.15,2013-08-27 14:29:00,
2013-08-27 09:34:00,79.3,73.3,29.92,SSW,194,5.0,11.0,82,0.00,,,0.00,438,Wunderground v.1.15,2013-08-27 14:34:00,
2013-08-27 09:39:00,79.7,73.3,29.92,South,173,8.0,11.0,81,0.00,,,0.00,436,Wunderground v.1.15,2013-08-27 14:39:00,
2013-08-27 09:44:00,80.2,73.5,29.92,South,188,3.0,10.0,80,0.00,,,0.00,450,Wunderground v.1.15,2013-08-27 14:44:00,
2013-08-27 09:49:00,80.5,73.4,29.92,SSE,149,10.0,12.0,79,0.00,,,0.00,489,Wunderground v.1.15,2013-08-27 14:49:00,
2013-08-27 09:54:00,80.7,72.8,29.92,South,171,7.0,11.0,77,0.00,,,0.00,420,Wunderground v.1.15,2013-08-27 14:54:00,
2013-08-27 09:59:00,80.9,73.0,29.92,SSW,200,7.0,11.0,77,0.00,,,0.00,473,Wunderground v.1.15,2013-08-27 14:59:00,
2013-08-27 10:04:00,81.1,74.0,29.92,South,175,5.0,9.0,79,0.00,,,0.00,513,Wunderground v.1.15,2013-08-27 15:04:00,
2013-08-27 10:09:00,81.5,73.6,29.92,South,187,11.0,11.0,77,0.00,,,0.00,348,Wunderground v.1.15,2013-08-27 15:09:00,
2013-08-27 10:14:00,81.4,73.1,29.91,South,170,6.0,10.0,76,0.00,,,0.00,318,Wunderground v.1.15,2013-08-27 15:14:00,
2013-08-27 10:19:00,81.3,73.0,29.91,SSW,213,9.0,13.0,76,0.00,,,0.00,466,Wunderground v.1.15,2013-08-27 15:19:00,
2013-08-27 10:24:00,81.5,73.2,29.91,South,184,5.0,12.0,76,0.00,,,0.00,480,Wunderground v.1.15,2013-08-27 15:24:00,
2013-08-27 10:29:00,81.8,73.1,29.91,SSW,213,7.0,12.0,75,0.00,,,0.00,469,Wunderground v.1.15,2013-08-27 15:29:00,
2013-08-27 10:34:00,82.0,73.3,29.91,SSW,200,5.0,12.0,75,0.00,,,0.00,559,Wunderground v.1.15,2013-08-27 15:34:00,
2013-08-27 10:39:00,82.4,73.7,29.91,South,184,12.0,12.0,75,0.00,,,0.00,640,Wunderground v.1.15,2013-08-27 15:39:00,
2013-08-27 10:44:00,82.7,73.6,29.91,South,176,9.0,13.0,74,0.00,,,0.00,585,Wunderground v.1.15,2013-08-27 15:44:00,
2013-08-27 10:49:00,82.7,73.6,29.91,South,190,11.0,13.0,74,0.00,,,0.00,647,Wunderground v.1.15,2013-08-27 15:49:00,
2013-08-27 10:54:00,83.2,74.4,29.90,SSW,196,6.0,13.0,75,0.00,,,0.00,649,Wunderground v.1.15,2013-08-27 15:54:00,
2013-08-27 10:59:00,83.6,74.0,29.90,South,173,13.0,16.0,73,0.00,,,0.00,694,Wunderground v.1.15,2013-08-27 15:59:00,
2013-08-27 11:04:00,83.9,73.9,29.90,South,179,7.0,12.0,72,0.00,,,0.00,715,Wunderground v.1.15,2013-08-27 16:04:00,
2013-08-27 11:09:00,84.3,74.3,29.90,SSE,157,9.0,15.0,72,0.00,,,0.00,721,Wunderground v.1.15,2013-08-27 16:09:00,
2013-08-27 11:14:00,84.6,74.6,29.90,South,174,7.0,11.0,72,0.00,,,0.00,724,Wunderground v.1.15,2013-08-27 16:14:00,
2013-08-27 11:19:00,85.2,74.3,29.90,SSE,163,9.0,12.0,70,0.00,,,0.00,729,Wunderground v.1.15,2013-08-27 16:19:00,
2013-08-27 11:24:00,85.6,74.3,29.90,South,173,10.0,17.0,69,0.00,,,0.00,737,Wunderground v.1.15,2013-08-27 16:24:00,
2013-08-27 11:29:00,85.9,74.1,29.89,South,175,7.0,17.0,68,0.00,,,0.00,737,Wunderground v.1.15,2013-08-27 16:29:00,
2013-08-27 11:34:00,86.3,73.6,29.89,South,176,8.0,15.0,66,0.00,,,0.00,749,Wunderground v.1.15,2013-08-27 16:34:00,
2013-08-27 11:39:00,86.4,73.2,29.89,South,190,8.0,15.0,65,0.00,,,0.00,754,Wunderground v.1.15,2013-08-27 16:39:00,
2013-08-27 11:44:00,86.6,73.9,29.89,South,177,13.0,18.0,66,0.00,,,0.00,754,Wunderground v.1.15,2013-08-27 16:44:00,
2013-08-27 11:49:00,86.7,73.1,29.88,SW,231,14.0,19.0,64,0.00,,,0.00,765,Wunderground v.1.15,2013-08-27 16:49:00,
2013-08-27 11:54:00,86.7,73.5,29.88,SW,219,8.0,15.0,65,0.00,,,0.00,770,Wunderground v.1.15,2013-08-27 16:54:00,
2013-08-27 11:59:00,87.2,74.0,29.88,South,173,9.0,15.0,65,0.00,,,0.00,770,Wunderground v.1.15,2013-08-27 16:59:00,
2013-08-27 12:05:00,87.6,74.4,29.88,South,172,6.0,16.0,65,0.00,,,0.00,775,Wunderground v.1.15,2013-08-27 17:05:00,
2013-08-27 12:10:00,87.7,73.5,29.88,SW,223,8.0,11.0,63,0.00,,,0.00,775,Wunderground v.1.15,2013-08-27 17:10:00,
2013-08-27 12:15:00,87.6,73.0,29.88,SW,215,10.0,13.0,62,0.00,,,0.00,784,Wunderground v.1.15,2013-08-27 17:15:00,
2013-08-27 12:20:00,87.7,73.5,29.88,SSW,196,7.0,11.0,63,0.00,,,0.00,782,Wunderground v.1.15,2013-08-27 17:20:00,
2013-08-27 12:25:00,87.7,73.5,29.88,SSW,206,10.0,13.0,63,0.00,,,0.00,788,Wunderground v.1.15,2013-08-27 17:25:00,
2013-08-27 12:30:00,88.2,74.5,29.88,SW,214,9.0,9.0,64,0.00,,,0.00,789,Wunderground v.1.15,2013-08-27 17:30:00,
2013-08-27 12:35:00,88.3,73.6,29.87,SSW,194,6.0,16.0,62,0.00,,,0.00,788,Wunderground v.1.15,2013-08-27 17:35:00,
2013-08-27 12:40:00,88.4,74.2,29.87,South,178,7.0,9.0,63,0.00,,,0.00,788,Wunderground v.1.15,2013-08-27 17:40:00,
2013-08-27 12:45:00,88.9,74.2,29.87,SSW,206,10.0,13.0,62,0.00,,,0.00,791,Wunderground v.1.15,2013-08-27 17:45:00,
2013-08-27 12:50:00,88.8,74.1,29.86,SSE,163,6.0,14.0,62,0.00,,,0.00,795,Wunderground v.1.15,2013-08-27 17:50:00,
2013-08-27 12:55:00,89.2,75.0,29.86,South,171,8.0,15.0,63,0.00,,,0.00,795,Wunderground v.1.15,2013-08-27 17:55:00,
2013-08-27 13:00:00,89.4,74.2,29.86,SW,221,12.0,12.0,61,0.00,,,0.00,791,Wunderground v.1.15,2013-08-27 18:00:00,
2013-08-27 13:05:00,89.6,74.4,29.86,South,175,12.0,17.0,61,0.00,,,0.00,796,Wunderground v.1.15,2013-08-27 18:05:00,
2013-08-27 13:10:00,89.6,74.4,29.86,South,189,15.0,16.0,61,0.00,,,0.00,795,Wunderground v.1.15,2013-08-27 18:10:00,
2013-08-27 13:15:00,89.8,74.6,29.85,South,189,6.0,16.0,61,0.00,,,0.00,793,Wunderground v.1.15,2013-08-27 18:15:00,
2013-08-27 13:20:00,90.1,75.3,29.85,South,183,5.0,9.0,62,0.00,,,0.00,795,Wunderground v.1.15,2013-08-27 18:20:00,
2013-08-27 13:25:00,90.4,75.1,29.85,South,188,7.0,16.0,61,0.00,,,0.00,793,Wunderground v.1.15,2013-08-27 18:25:00,
2013-08-27 13:30:00,90.3,74.5,29.85,South,171,13.0,16.0,60,0.00,,,0.00,789,Wunderground v.1.15,2013-08-27 18:30:00,
2013-08-27 13:35:00,90.1,73.8,29.85,South,190,11.0,16.0,59,0.00,,,0.00,789,Wunderground v.1.15,2013-08-27 18:35:00,
2013-08-27 13:40:00,90.2,74.4,29.85,South,178,10.0,11.0,60,0.00,,,0.00,788,Wunderground v.1.15,2013-08-27 18:40:00,
2013-08-27 13:45:00,90.2,73.9,29.85,SW,214,9.0,13.0,59,0.00,,,0.00,780,Wunderground v.1.15,2013-08-27 18:45:00,
2013-08-27 13:50:00,90.4,74.6,29.84,SSW,196,8.0,10.0,60,0.00,,,0.00,780,Wunderground v.1.15,2013-08-27 18:50:00,
2013-08-27 13:55:00,90.5,74.7,29.84,South,173,4.0,14.0,60,0.00,,,0.00,775,Wunderground v.1.15,2013-08-27 18:55:00,
2013-08-27 14:00:00,90.7,75.4,29.85,SSW,202,8.0,8.0,61,0.00,,,0.00,768,Wunderground v.1.15,2013-08-27 19:00:00,
2013-08-27 14:05:00,91.2,75.9,29.84,SSW,210,7.0,9.0,61,0.00,,,0.00,765,Wunderground v.1.15,2013-08-27 19:05:00,
2013-08-27 14:10:00,91.4,75.1,29.84,South,186,11.0,13.0,59,0.00,,,0.00,763,Wunderground v.1.15,2013-08-27 19:10:00,
2013-08-27 14:16:00,91.4,75.1,29.84,SSW,198,8.0,17.0,59,0.00,,,0.00,759,Wunderground v.1.15,2013-08-27 19:16:00,
2013-08-27 14:21:00,91.5,75.1,29.83,South,190,9.0,12.0,59,0.00,,,0.00,754,Wunderground v.1.15,2013-08-27 19:21:00,
2013-08-27 14:26:00,91.7,74.8,29.83,SW,229,10.0,17.0,58,0.00,,,0.00,749,Wunderground v.1.15,2013-08-27 19:26:00,
2013-08-27 14:31:00,91.7,75.3,29.83,South,171,11.0,13.0,59,0.00,,,0.00,742,Wunderground v.1.15,2013-08-27 19:31:00,
2013-08-27 14:36:00,91.9,75.0,29.83,South,191,9.0,15.0,58,0.00,,,0.00,733,Wunderground v.1.15,2013-08-27 19:36:00,
2013-08-27 14:41:00,91.7,75.3,29.83,SSW,205,13.0,14.0,59,0.00,,,0.00,724,Wunderground v.1.15,2013-08-27 19:41:00,
2013-08-27 14:46:00,91.9,76.5,29.83,SSW,197,10.0,15.0,61,0.00,,,0.00,717,Wunderground v.1.15,2013-08-27 19:46:00,
2013-08-27 14:51:00,91.8,74.9,29.83,SSW,207,6.0,15.0,58,0.00,,,0.00,707,Wunderground v.1.15,2013-08-27 19:51:00,
2013-08-27 14:56:00,91.6,74.7,29.83,South,187,15.0,15.0,58,0.00,,,0.00,698,Wunderground v.1.15,2013-08-27 19:56:00,
2013-08-27 15:01:00,91.6,75.2,29.83,South,186,5.0,13.0,59,0.00,,,0.00,689,Wunderground v.1.15,2013-08-27 20:01:00,
2013-08-27 15:06:00,92.0,75.1,29.83,SW,215,11.0,13.0,58,0.00,,,0.00,680,Wunderground v.1.15,2013-08-27 20:06:00,
2013-08-27 15:11:00,92.2,74.8,29.83,SSW,194,12.0,18.0,57,0.00,,,0.00,675,Wunderground v.1.15,2013-08-27 20:11:00,
2013-08-27 15:16:00,92.2,74.2,29.83,WSW,242,17.0,18.0,56,0.00,,,0.00,664,Wunderground v.1.15,2013-08-27 20:16:00,
2013-08-27 15:21:00,92.4,74.4,29.82,WSW,247,8.0,14.0,56,0.00,,,0.00,679,Wunderground v.1.15,2013-08-27 20:21:00,
2013-08-27 15:26:00,92.3,73.8,29.83,SW,227,10.0,17.0,55,0.00,,,0.00,689,Wunderground v.1.15,2013-08-27 20:26:00,
2013-08-27 15:31:00,92.3,74.3,29.83,SSW,192,5.0,14.0,56,0.00,,,0.00,747,Wunderground v.1.15,2013-08-27 20:31:00,
2013-08-27 15:36:00,92.7,75.2,29.83,SW,236,8.0,14.0,57,0.00,,,0.00,654,Wunderground v.1.15,2013-08-27 20:36:00,
2013-08-27 15:41:00,92.6,75.1,29.83,SSW,198,12.0,12.0,57,0.00,,,0.00,274,Wunderground v.1.15,2013-08-27 20:41:00,
2013-08-27 15:46:00,92.3,74.3,29.83,SW,228,14.0,14.0,56,0.00,,,0.00,278,Wunderground v.1.15,2013-08-27 20:46:00,
2013-08-27 15:51:00,91.9,74.0,29.83,SW,229,10.0,13.0,56,0.00,,,0.00,281,Wunderground v.1.15,2013-08-27 20:51:00,
2013-08-27 15:56:00,91.6,74.7,29.82,SW,223,4.0,13.0,58,0.00,,,0.00,287,Wunderground v.1.15,2013-08-27 20:56:00,
2013-08-27 16:01:00,91.7,74.8,29.83,SW,221,8.0,14.0,58,0.00,,,0.00,701,Wunderground v.1.15,2013-08-27 21:01:00,
2013-08-27 16:06:00,92.1,74.7,29.82,SW,222,5.0,14.0,57,0.00,,,0.00,640,Wunderground v.1.15,2013-08-27 21:06:00,
2013-08-27 16:11:00,92.5,74.5,29.82,SSW,192,4.0,12.0,56,0.00,,,0.00,582,Wunderground v.1.15,2013-08-27 21:11:00,
2013-08-27 16:16:00,92.8,75.3,29.82,SW,215,6.0,12.0,57,0.00,,,0.00,459,Wunderground v.1.15,2013-08-27 21:16:00,
2013-08-27 16:21:00,93.0,75.0,29.82,SSW,211,4.0,10.0,56,0.00,,,0.00,515,Wunderground v.1.15,2013-08-27 21:21:00,
2013-08-27 16:26:00,93.0,76.0,29.82,SSW,211,7.0,16.0,58,0.00,,,0.00,501,Wunderground v.1.15,2013-08-27 21:26:00,
2013-08-27 16:31:00,92.8,75.3,29.82,SSW,206,7.0,12.0,57,0.00,,,0.00,489,Wunderground v.1.15,2013-08-27 21:31:00,
2013-08-27 16:37:00,92.9,74.9,29.82,SW,215,7.0,12.0,56,0.00,,,0.00,473,Wunderground v.1.15,2013-08-27 21:37:00,
2013-08-27 16:45:00,92.8,75.3,29.82,WSW,242,6.0,11.0,57,0.00,,,0.00,450,Wunderground v.1.15,2013-08-27 21:45:00,
2013-08-27 16:50:00,92.9,75.4,29.82,WSW,240,12.0,12.0,57,0.00,,,0.00,436,Wunderground v.1.15,2013-08-27 21:50:00,
2013-08-27 16:55:00,92.6,74.6,29.82,SSW,212,6.0,16.0,56,0.00,,,0.00,420,Wunderground v.1.15,2013-08-27 21:55:00,
2013-08-27 17:00:00,92.4,75.0,29.82,SSW,207,8.0,9.0,57,0.00,,,0.00,406,Wunderground v.1.15,2013-08-27 22:00:00,
2013-08-27 17:05:00,92.3,74.3,29.81,SW,218,6.0,14.0,56,0.00,,,0.00,390,Wunderground v.1.15,2013-08-27 22:05:00,
2013-08-27 17:10:00,92.4,75.0,29.81,SSW,197,11.0,11.0,57,0.00,,,0.00,378,Wunderground v.1.15,2013-08-27 22:10:00,
2013-08-27 17:15:00,92.3,74.9,29.81,SW,217,8.0,14.0,57,0.00,,,0.00,357,Wunderground v.1.15,2013-08-27 22:15:00,
2013-08-27 17:20:00,92.3,74.9,29.82,SW,224,6.0,9.0,57,0.00,,,0.00,341,Wunderground v.1.15,2013-08-27 22:20:00,
2013-08-27 17:25:00,92.3,74.9,29.82,SSW,202,9.0,12.0,57,0.00,,,0.00,287,Wunderground v.1.15,2013-08-27 22:25:00,
2013-08-27 17:30:00,92.2,75.3,29.82,SW,225,8.0,8.0,58,0.00,,,0.00,186,Wunderground v.1.15,2013-08-27 22:30:00,
2013-08-27 17:35:00,91.9,75.0,29.82,SSW,209,7.0,14.0,58,0.00,,,0.00,311,Wunderground v.1.15,2013-08-27 22:35:00,
2013-08-27 17:40:00,91.8,75.4,29.82,SW,223,3.0,8.0,59,0.00,,,0.00,301,Wunderground v.1.15,2013-08-27 22:40:00,
2013-08-27 17:45:00,91.9,75.5,29.82,SW,230,3.0,11.0,59,0.00,,,0.00,297,Wunderground v.1.15,2013-08-27 22:45:00,
2013-08-27 17:50:00,92.0,75.6,29.83,SSW,205,4.0,6.0,59,0.00,,,0.00,251,Wunderground v.1.15,2013-08-27 22:50:00,
2013-08-27 17:55:00,91.8,75.4,29.83,SW,217,4.0,11.0,59,0.00,,,0.00,132,Wunderground v.1.15,2013-08-27 22:55:00,
2013-08-27 18:00:00,91.5,75.7,29.83,SW,227,6.0,7.0,60,0.00,,,0.00,111,Wunderground v.1.15,2013-08-27 23:00:00,
2013-08-27 18:05:00,91.1,75.8,29.84,SW,232,3.0,8.0,61,0.00,,,0.00,176,Wunderground v.1.15,2013-08-27 23:05:00,
2013-08-27 18:10:00,90.8,76.0,29.84,WSW,244,6.0,8.0,62,0.00,,,0.00,62,Wunderground v.1.15,2013-08-27 23:10:00,
2013-08-27 18:15:00,90.3,76.0,29.83,SW,231,4.0,10.0,63,0.00,,,0.00,83,Wunderground v.1.15,2013-08-27 23:15:00,
2013-08-27 18:20:00,89.9,76.1,29.83,SW,231,3.0,7.0,64,0.00,,,0.00,81,Wunderground v.1.15,2013-08-27 23:20:00,
2013-08-27 18:25:00,89.6,75.8,29.83,SW,229,0.0,7.0,64,0.00,,,0.00,67,Wunderground v.1.15,2013-08-27 23:25:00,
2013-08-27 18:30:00,89.4,76.1,29.83,SW,217,1.0,6.0,65,0.00,,,0.00,56,Wunderground v.1.15,2013-08-27 23:30:00,
2013-08-27 18:35:00,89.1,75.8,29.83,SW,231,1.0,8.0,65,0.00,,,0.00,109,Wunderground v.1.15,2013-08-27 23:35:00,
2013-08-27 18:40:00,89.0,75.7,29.83,SW,227,8.0,8.0,65,0.00,,,0.00,63,Wunderground v.1.15,2013-08-27 23:40:00,
2013-08-27 18:45:00,88.9,75.1,29.83,SW,227,5.0,10.0,64,0.00,,,0.00,56,Wunderground v.1.15,2013-08-27 23:45:00,
2013-08-27 18:50:00,88.8,75.0,29.83,WSW,240,7.0,7.0,64,0.00,,,0.00,58,Wunderground v.1.15,2013-08-27 23:50:00,
2013-08-27 18:55:00,88.8,74.6,29.83,SW,234,4.0,11.0,63,0.00,,,0.00,58,Wunderground v.1.15,2013-08-27 23:55:00,
2013-08-27 19:01:00,88.9,74.7,29.83,SW,231,5.0,8.0,63,0.00,,,0.00,40,Wunderground v.1.15,2013-08-28 00:01:00,
2013-08-27 19:06:00,88.7,75.0,29.83,WSW,239,5.0,8.0,64,0.00,,,0.00,32,Wunderground v.1.15,2013-08-28 00:06:00,
2013-08-27 19:11:00,88.4,74.7,29.83,WSW,238,4.0,5.0,64,0.00,,,0.00,28,Wunderground v.1.15,2013-08-28 00:11:00,
2013-08-27 19:16:00,88.1,74.8,29.83,SW,236,3.0,7.0,65,0.00,,,0.00,25,Wunderground v.1.15,2013-08-28 00:16:00,
2013-08-27 19:21:00,87.8,75.0,29.83,SW,236,5.0,5.0,66,0.00,,,0.00,21,Wunderground v.1.15,2013-08-28 00:21:00,
2013-08-27 19:26:00,87.5,75.2,29.84,SW,236,0.0,5.0,67,0.00,,,0.00,14,Wunderground v.1.15,2013-08-28 00:26:00,
2013-08-27 19:31:00,87.2,74.9,29.84,WSW,237,2.0,4.0,67,0.00,,,0.00,9,Wunderground v.1.15,2013-08-28 00:31:00,
2013-08-27 19:36:00,86.8,75.0,29.84,WSW,240,5.0,5.0,68,0.00,,,0.00,5,Wunderground v.1.15,2013-08-28 00:36:00,
2013-08-27 19:41:00,86.6,74.8,29.84,SW,228,2.0,5.0,68,0.00,,,0.00,0,Wunderground v.1.15,2013-08-28 00:41:00,
2013-08-27 19:46:00,86.5,74.7,29.84,SW,232,5.0,5.0,68,0.00,,,0.00,0,Wunderground v.1.15,2013-08-28 00:46:00,
2013-08-27 19:51:00,86.3,74.9,29.84,SW,232,2.0,4.0,69,0.00,,,0.00,0,Wunderground v.1.15,2013-08-28 00:51:00,
2013-08-27 19:56:00,86.1,74.7,29.84,SW,232,0.0,5.0,69,0.00,,,0.00,0,Wunderground v.1.15,2013-08-28 00:56:00,
2013-08-27 20:02:00,85.9,75.0,29.85,SW,232,0.0,1.0,70,0.00,,,0.00,0,Wunderground v.1.15,2013-08-28 01:02:00,
2013-08-27 20:07:00,85.7,75.2,29.87,North,360,0.0,6.0,71,0.00,,,0.00,0,Wunderground v.1.15,2013-08-28 01:07:00,
2013-08-27 20:12:00,84.9,74.9,29.88,North,5,5.0,9.0,72,0.00,,,0.00,0,Wunderground v.1.15,2013-08-28 01:12:00,
2013-08-27 20:17:00,83.4,74.2,29.88,NNE,22,2.0,17.0,74,0.00,,,0.00,0,Wunderground v.1.15,2013-08-28 01:17:00,
2013-08-27 20:22:00,82.0,73.3,29.87,NNE,17,4.0,20.0,75,0.00,,,0.00,0,Wunderground v.1.15,2013-08-28 01:22:00,
2013-08-27 20:27:00,81.2,72.9,29.87,North,355,2.0,20.0,76,0.00,,,0.00,0,Wunderground v.1.15,2013-08-28 01:27:00,
2013-08-27 20:32:00,80.6,72.7,29.87,NE,34,1.0,10.0,77,0.00,,,0.00,0,Wunderground v.1.15,2013-08-28 01:32:00,
2013-08-27 20:37:00,80.3,73.2,29.88,NNE,26,3.0,11.0,79,0.00,,,0.00,0,Wunderground v.1.15,2013-08-28 01:37:00,
2013-08-27 20:42:00,79.8,73.4,29.88,NNE,32,1.0,5.0,81,0.00,,,0.00,0,Wunderground v.1.15,2013-08-28 01:42:00,
2013-08-27 20:47:00,79.4,73.4,29.88,NE,40,4.0,6.0,82,0.00,,,0.00,0,Wunderground v.1.15,2013-08-28 01:47:00,
2013-08-27 20:52:00,78.9,73.7,29.89,NE,56,1.0,2.0,84,0.00,,,0.00,0,Wunderground v.1.15,2013-08-28 01:52:00,
2013-08-27 20:57:00,78.4,73.5,29.89,NNE,24,0.0,7.0,85,0.00,,,0.00,0,Wunderground v.1.15,2013-08-28 01:57:00,
2013-08-27 21:02:00,78.0,73.5,29.89,NNE,24,0.0,3.0,86,0.00,,,0.00,0,Wunderground v.1.15,2013-08-28 02:02:00,
2013-08-27 21:07:00,77.6,73.4,29.88,NE,52,4.0,5.0,87,0.00,,,0.00,0,Wunderground v.1.15,2013-08-28 02:07:00,
2013-08-27 21:12:00,77.3,73.1,29.89,North,11,0.0,1.0,87,0.00,,,0.00,0,Wunderground v.1.15,2013-08-28 02:12:00,
2013-08-27 21:17:00,77.0,73.2,29.89,ENE,71,1.0,3.0,88,0.00,,,0.00,0,Wunderground v.1.15,2013-08-28 02:17:00,
2013-08-27 21:22:00,76.7,73.2,29.89,ENE,71,0.0,0.0,89,0.00,,,0.00,0,Wunderground v.1.15,2013-08-28 02:22:00,
2013-08-27 21:27:00,76.5,73.0,29.91,NE,40,0.0,3.0,89,0.00,,,0.00,0,Wunderground v.1.15,2013-08-28 02:27:00,
2013-08-27 21:32:00,76.3,73.1,29.90,East,80,0.0,1.0,90,0.00,,,0.00,0,Wunderground v.1.15,2013-08-28 02:32:00,
2013-08-27 21:37:00,76.2,73.1,29.90,East,80,0.0,1.0,90,0.00,,,0.00,0,Wunderground v.1.15,2013-08-28 02:37:00,
2013-08-27 21:42:00,76.1,73.0,29.89,East,80,0.0,0.0,90,0.00,,,0.00,0,Wunderground v.1.15,2013-08-28 02:42:00,
2013-08-27 21:47:00,75.9,72.8,29.90,East,81,0.0,1.0,90,0.00,,,0.00,0,Wunderground v.1.15,2013-08-28 02:47:00,
2013-08-27 21:53:00,75.8,73.0,29.90,East,81,0.0,0.0,91,0.00,,,0.00,0,Wunderground v.1.15,2013-08-28 02:53:00,
2013-08-27 21:58:00,75.8,73.0,29.90,ENE,78,0.0,1.0,91,0.00,,,0.00,0,Wunderground v.1.15,2013-08-28 02:58:00,
2013-08-27 22:03:00,75.7,73.2,29.90,ENE,78,0.0,1.0,92,0.00,,,0.00,0,Wunderground v.1.15,2013-08-28 03:03:00,
2013-08-27 22:08:00,75.6,73.1,29.90,ENE,78,0.0,1.0,92,0.00,,,0.00,0,Wunderground v.1.15,2013-08-28 03:08:00,
2013-08-27 22:13:00,75.5,73.0,29.90,ENE,78,0.0,1.0,92,0.00,,,0.00,0,Wunderground v.1.15,2013-08-28 03:13:00,
2013-08-27 22:18:00,75.5,73.0,29.89,ENE,78,0.0,1.0,92,0.00,,,0.00,0,Wunderground v.1.15,2013-08-28 03:18:00,
2013-08-27 22:23:00,75.3,72.8,29.90,ENE,78,0.0,2.0,92,0.00,,,0.00,0,Wunderground v.1.15,2013-08-28 03:23:00,
2013-08-27 22:28:00,75.3,73.1,29.89,ENE,78,0.0,2.0,93,0.00,,,0.00,0,Wunderground v.1.15,2013-08-28 03:28:00,
2013-08-27 22:33:00,75.2,73.0,29.91,ENE,78,0.0,1.0,93,0.00,,,0.00,0,Wunderground v.1.15,2013-08-28 03:33:00,
2013-08-27 22:38:00,75.2,73.0,29.91,ENE,78,0.0,1.0,93,0.00,,,0.00,0,Wunderground v.1.15,2013-08-28 03:38:00,
2013-08-27 22:43:00,75.2,73.0,29.92,NNW,342,1.0,4.0,93,0.00,,,0.00,0,Wunderground v.1.15,2013-08-28 03:43:00,
2013-08-27 22:48:00,75.2,73.4,29.93,West,280,12.0,12.0,94,0.00,,,0.00,0,Wunderground v.1.15,2013-08-28 03:48:00,
2013-08-27 22:54:00,75.1,73.3,29.92,NW,308,1.0,8.0,94,0.00,,,0.00,0,Wunderground v.1.15,2013-08-28 03:54:00,
2013-08-27 22:59:00,75.0,73.2,29.91,NW,315,0.0,9.0,94,0.00,,,0.00,0,Wunderground v.1.15,2013-08-28 03:59:00,
2013-08-27 23:01:00,75.0,73.2,29.91,North,355,2.0,11.0,94,0.00,,,0.00,0,Wunderground v.1.15,2013-08-28 04:01:00,
2013-08-27 23:06:00,74.9,73.1,29.91,NNW,340,0.0,11.0,94,0.00,,,0.00,0,Wunderground v.1.15,2013-08-28 04:06:00,
2013-08-27 23:11:00,74.9,73.1,29.91,North,355,1.0,2.0,94,0.00,,,0.00,0,Wunderground v.1.15,2013-08-28 04:11:00,
2013-08-27 23:14:00,74.8,73.0,29.90,NNE,26,0.0,2.0,94,0.00,,,0.00,0,Wunderground v.1.15,2013-08-28 04:14:00,
2013-08-27 23:20:00,74.8,73.0,29.90,NNE,26,0.0,2.0,94,0.00,,,0.00,0,Wunderground v.1.15,2013-08-28 04:20:00,
2013-08-27 23:25:00,74.7,72.9,29.90,NNE,26,0.0,1.0,94,0.00,,,0.00,0,Wunderground v.1.15,2013-08-28 04:25:00,
2013-08-27 23:30:00,74.6,72.8,29.90,NNE,26,0.0,1.0,94,0.00,,,0.00,0,Wunderground v.1.15,2013-08-28 04:30:00,
2013-08-27 23:35:00,74.5,72.7,29.90,NNE,26,0.0,2.0,94,0.00,,,0.00,0,Wunderground v.1.15,2013-08-28 04:35:00,
2013-08-27 23:40:00,74.4,72.6,29.90,NNE,26,0.0,2.0,94,0.00,,,0.01,0,Wunderground v.1.15,2013-08-28 04:40:00,
2013-08-27 23:45:00,74.3,72.5,29.90,NNE,26,0.0,1.0,94,0.00,,,0.01,0,Wunderground v.1.15,2013-08-28 04:45:00,
2013-08-27 23:50:00,74.2,72.4,29.90,NNE,26,0.0,0.0,94,0.00,,,0.01,0,Wunderground v.1.15,2013-08-28 04:50:00,
2013-08-27 23:55:00,74.0,72.2,29.90,NNE,26,0.0,1.0,94,0.00,,,0.01,0,Wunderground v.1.15,2013-08-28 04:55:00,